{"data":{"norad_id":63363,"epoch":"2026-05-25T01:37:37.483680Z","epoch_age_seconds":59380,"freshness":"FRESH","line1":"1 63363U 25063A   26145.06779495  .00012028  00000+0  41752-3 0  9996","line2":"2 63363  53.1607  54.8428 0001208  89.8517 270.2622 15.30202255 66474","mean_motion":15.30202255,"eccentricity":0.0001208,"inclination_deg":53.1607,"raan_deg":54.8428,"arg_perigee_deg":89.8517,"mean_anomaly_deg":270.2622,"bstar":0.00041752,"rev_number":6647,"period_min":94.105207027028,"perigee_km":474.38045228742,"apogee_km":476.0362205207,"semimajor_km":6853.3453364041,"source":"CELESTRAK","updated_at":"2026-05-25T13:38:19.961191Z"}}